GW6113 Weather Reports


time (UTC)temp
C
wind
direction
speed
KPH
gust
KPH
rain 1hr
cm
rain 24hr
cm
rain mn
cm
humidity
%
barometer
mb
20260504050406 36 304 3.2 17.7 0.00 0.00 0.00 41 1010.2
20260504045906 35 218 0.0 3.2 0.00 0.00 0.00 51 1010.5
20260504045406 35 82 4.8 8.0 0.00 0.00 0.00 50 1010.5
20260504044906 35 99 1.6 4.8 0.00 0.00 0.00 52 1010.5
20260504044408 35 247 4.8 8.0 0.00 0.00 0.00 54 1010.5
20260504043906 35 204 4.8 14.5 0.00 0.00 0.00 53 1010.5
20260504043406 35 89 1.6 8.0 0.00 0.00 0.00 51 1010.5
20260504042907 33 98 1.6 9.7 0.00 0.00 0.00 54 1011.2
20260504042407 34 193 11.3 16.1 0.00 0.00 0.00 54 1010.8
20260504041906 33 107 4.8 14.5 0.00 0.00 0.00 55 1011.2
20260504041406 32 179 11.3 16.1 0.00 0.00 0.00 58 1011.2
20260504040907 32 142 6.4 16.1 0.00 0.00 0.00 59 1011.2
20260504040407 32 182 4.8 12.9 0.00 0.00 0.00 61 1011.5
20260504035907 32 145 4.8 14.5 0.00 0.00 0.00 61 1011.5
20260504035406 31 175 8.0 16.1 0.00 0.00 0.00 62 1011.5
20260504034907 32 330 8.0 14.5 0.00 0.00 0.00 62 1011.9
20260504034408 31 114 11.3 17.7 0.00 0.00 0.00 61 1011.9
20260504033907 31 134 14.5 17.7 0.00 0.00 0.00 61 1011.5
20260504033406 32 212 11.3 12.9 0.00 0.00 0.00 61 1011.5
20260504032907 32 145 9.7 14.5 0.00 0.00 0.00 61 1011.5
20260504032406 32 161 8.0 22.5 0.00 0.00 0.00 61 1011.5
20260504031906 32 128 12.9 20.9 0.00 0.00 0.00 60 1011.9
20260504031406 33 206 11.3 20.9 0.00 0.00 0.00 58 1011.9
20260504030906 33 145 9.7 12.9 0.00 0.00 0.00 55 1011.9
20260504030406 32 78 8.0 11.3 0.00 0.00 0.00 56 1011.9
20260504025907 33 223 6.4 11.3 0.00 0.00 0.00 58 1011.9
20260504025406 33 123 11.3 14.5 0.00 0.00 0.00 56 1011.9
20260504024906 33 117 6.4 9.7 0.00 0.00 0.00 56 1012.2
20260504024412 34 113 1.6 4.8 0.00 0.00 0.00 54 1012.2
20260504023906 33 243 3.2 3.2 0.00 0.00 0.00 55 1011.9
20260504023407 33 321 1.6 4.8 0.00 0.00 0.00 56 1012.2
20260504022906 32 289 3.2 4.8 0.00 0.00 0.00 56 1012.5
20260504022406 33 87 1.6 4.8 0.00 0.00 0.00 55 1012.2
20260504021906 33 52 4.8 9.7 0.00 0.00 0.00 54 1012.2
20260504021406 33 125 4.8 11.3 0.00 0.00 0.00 55 1012.2
20260504020906 32 355 1.6 1.6 0.00 0.00 0.00 57 1012.5
20260504020407 32 61 1.6 8.0 0.00 0.00 0.00 58 1012.5
20260504015907 31 54 6.4 9.7 0.00 0.00 0.00 58 1012.5
20260504015406 32 51 6.4 9.7 0.00 0.00 0.00 58 1012.5
20260504014906 32 81 8.0 11.3 0.00 0.00 0.00 58 1012.5
20260504014406 32 60 8.0 11.3 0.00 0.00 0.00 56 1012.9
20260504013906 32 48 1.6 11.3 0.00 0.00 0.00 57 1012.5
20260504013406 32 46 4.8 12.9 0.00 0.00 0.00 58 1012.5
20260504012906 32 47 4.8 8.0 0.00 0.00 0.00 57 1012.5
20260504012406 32 303 4.8 8.0 0.00 0.00 0.00 57 1012.9
20260504011906 32 288 4.8 9.7 0.00 0.00 0.00 56 1012.5
20260504011406 32 52 9.7 11.3 0.00 0.00 0.00 57 1012.5
20260504010906 33 49 12.9 16.1 0.00 0.00 0.00 55 1012.9
20260504010406 32 104 1.6 8.0 0.00 0.00 0.00 58 1012.5
20260504005906 32 55 4.8 9.7 0.00 0.00 0.00 56 1012.9
20260504005406 32 253 3.2 3.2 0.00 0.00 0.00 58 1012.5
20260504004906 32 219 3.2 4.8 0.00 0.00 0.00 58 1012.9
20260504004406 32 300 3.2 4.8 0.00 0.00 0.00 58 1012.9
20260504003906 31 51 4.8 9.7 0.00 0.00 0.00 59 1012.9
20260504003406 31 54 3.2 4.8 0.00 0.00 0.00 60 1012.9
20260504002906 31 70 1.6 3.2 0.00 0.00 0.00 60 1012.5
20260504002406 30 91 3.2 4.8 0.00 0.00 0.00 61 1012.5
20260504001908 30 272 1.6 3.2 0.00 0.00 0.00 63 1012.2
20260504001406 30 286 4.8 4.8 0.00 0.00 0.00 62 1012.2
20260504000906 30 275 1.6 3.2 0.00 0.00 0.00 60 1012.5
20260504000408 30 155 0.0 3.2 0.00 0.00 0.00 60 1012.5
20260503235907 30 191 3.2 3.2 0.00 0.00 0.00 61 1012.2
20260503235406 29 259 3.2 3.2 0.00 0.00 0.00 62 1012.2
20260503234906 29 277 3.2 3.2 0.00 0.00 0.00 62 1012.5
20260503234406 29 300 1.6 3.2 0.00 0.00 0.00 62 1011.9
20260503233906 29 295 1.6 1.6 0.00 0.00 0.00 62 1011.9
20260503233407 29 306 3.2 3.2 0.00 0.00 0.00 61 1011.9
20260503232907 29 54 0.0 1.6 0.00 0.00 0.00 62 1011.9
20260503232406 29 66 1.6 1.6 0.00 0.00 0.00 62 1011.9
20260503231906 29 67 3.2 3.2 0.00 0.00 0.00 60 1011.9
20260503231406 29 75 0.0 1.6 0.00 0.00 0.00 61 1011.5
20260503230906 30 68 1.6 3.2 0.00 0.00 0.00 60 1011.5
20260503230406 30 71 0.0 3.2 0.00 0.00 0.00 60 1011.5
20260503225906 30 75 1.6 1.6 0.00 0.00 0.00 59 1011.5
20260503225406 30 313 0.0 1.6 0.00 0.00 0.00 59 1011.5
20260503224906 29 66 1.6 1.6 0.00 0.00 0.00 61 1011.5
20260503224406 28 10 1.6 1.6 0.00 0.00 0.00 63 1011.2
20260503223906 28 50 0.0 1.6 0.00 0.00 0.00 62 1011.2
20260503223406 28 50 1.6 1.6 0.00 0.00 0.00 63 1010.8
20260503222906 28 50 0.0 3.2 0.00 0.00 0.00 64 1010.8
20260503222408 28 32 1.6 3.2 0.00 0.00 0.00 63 1010.8
20260503221906 27 13 0.0 1.6 0.00 0.00 0.00 65 1011.2
20260503221408 27 1 0.0 1.6 0.00 0.00 0.00 66 1010.8
20260503220906 27 0 0.0 0.0 0.00 0.00 0.00 67 1011.2
20260503220406 27 9 0.0 1.6 0.00 0.00 0.00 67 1010.8
20260503215907 27 52 1.6 1.6 0.00 0.00 0.00 67 1010.8
20260503215407 27 52 0.0 1.6 0.00 0.00 0.00 67 1010.8
20260503214906 27 52 0.0 1.6 0.00 0.00 0.00 67 1010.8
20260503214406 27 52 1.6 3.2 0.00 0.00 0.00 67 1010.8
20260503213906 27 59 1.6 3.2 0.00 0.00 0.00 67 1010.8
20260503213406 27 48 1.6 1.6 0.00 0.00 0.00 67 1010.8
20260503212906 27 34 0.0 0.0 0.00 0.00 0.00 67 1011.2
20260503212408 27 34 0.0 1.6 0.00 0.00 0.00 67 1011.2
20260503211906 27 34 1.6 1.6 0.00 0.00 0.00 67 1010.8
20260503211406 27 308 0.0 1.6 0.00 0.00 0.00 67 1011.2
20260503210908 27 305 0.0 1.6 0.00 0.00 0.00 67 1011.2
20260503210406 27 306 0.0 0.0 0.00 0.00 0.00 67 1010.8
20260503205906 27 306 0.0 1.6 0.00 0.00 0.00 67 1011.2
20260503205319 27 310 1.6 1.6 0.00 0.00 0.00 67 1010.8
20260503204807 27 303 0.0 1.6 0.00 0.00 0.00 67 1010.5
20260503204306 27 303 0.0 1.6 0.00 0.00 0.00 66 1010.5
20260503203806 27 324 0.0 1.6 0.00 0.00 0.00 65 1010.5
20260503203306 27 324 1.6 1.6 0.00 0.00 0.00 65 1010.8
20260503202806 27 355 1.6 3.2 0.00 0.00 0.00 66 1010.5
20260503202308 27 23 0.0 1.6 0.00 0.00 0.00 66 1010.5
20260503201806 27 53 0.0 1.6 0.00 0.00 0.00 66 1010.5
20260503201306 27 43 0.0 0.0 0.00 0.00 0.00 67 1010.5
20260503200806 27 61 1.6 1.6 0.00 0.00 0.00 67 1010.2
20260503200307 27 64 0.0 0.0 0.00 0.00 0.00 67 1010.5
20260503195806 27 64 0.0 0.0 0.00 0.00 0.00 67 1010.5
20260503195307 27 64 0.0 0.0 0.00 0.00 0.00 67 1010.5
20260503194806 27 64 1.6 3.2 0.00 0.00 0.00 67 1010.2
20260503194307 27 59 1.6 1.6 0.00 0.00 0.00 67 1010.2
20260503193807 27 59 0.0 3.2 0.00 0.00 0.00 67 1010.5
20260503193306 27 44 1.6 1.6 0.00 0.00 0.00 67 1010.2
20260503192806 27 58 0.0 0.0 0.00 0.00 0.00 67 1009.8
20260503192306 27 59 1.6 3.2 0.00 0.00 0.00 67 1010.2
20260503191806 27 59 1.6 4.8 0.00 0.00 0.00 67 1010.2
20260503191306 27 69 4.8 8.0 0.00 0.00 0.00 66 1010.2
20260503190807 27 88 1.6 3.2 0.00 0.00 0.00 67 1010.2
20260503190306 27 98 1.6 3.2 0.00 0.00 0.00 68 1010.2
20260503185806 27 95 4.8 4.8 0.00 0.00 0.00 68 1010.2
20260503185306 27 113 1.6 4.8 0.00 0.00 0.00 69 1010.2
20260503184806 27 129 8.0 9.7 0.00 0.00 0.00 69 1010.2
20260503184307 27 78 4.8 9.7 0.00 0.00 0.00 68 1010.2
20260503183806 27 81 6.4 9.7 0.00 0.00 0.00 68 1010.2
20260503183306 27 114 1.6 4.8 0.00 0.00 0.00 69 1010.2
20260503182806 27 70 3.2 8.0 0.00 0.00 0.00 70 1010.2
20260503182306 27 101 1.6 8.0 0.00 0.00 0.00 70 1010.2
20260503181806 27 116 1.6 4.8 0.00 0.00 0.00 71 1010.2
20260503181306 27 109 1.6 8.0 0.00 0.00 0.00 71 1010.2
20260503180806 27 115 6.4 8.0 0.00 0.00 0.00 69 1010.2
20260503180306 28 120 3.2 8.0 0.00 0.00 0.00 68 1010.2
20260503175808 28 97 3.2 4.8 0.00 0.00 0.00 67 1010.2
20260503175306 28 88 6.4 8.0 0.00 0.00 0.00 66 1010.2
20260503174807 28 88 4.8 8.0 0.00 0.00 0.00 66 1009.8
20260503174306 28 116 4.8 8.0 0.00 0.00 0.00 66 1010.2
20260503173806 28 127 4.8 4.8 0.00 0.00 0.00 67 1010.2
20260503173306 27 96 8.0 9.7 0.00 0.00 0.00 67 1010.2
20260503172806 28 127 6.4 11.3 0.00 0.00 0.00 68 1010.2
20260503172306 28 121 1.6 3.2 0.00 0.00 0.00 68 1010.2
20260503171807 28 130 4.8 4.8 0.00 0.00 0.00 67 1010.2
20260503171306 28 85 4.8 8.0 0.00 0.00 0.00 64 1010.2
20260503170806 28 125 3.2 4.8 0.00 0.00 0.00 64 1010.2
20260503170306 28 145 4.8 8.0 0.00 0.00 0.00 65 1010.2